Temperature
5 6 6 6 6 6 5 5 6 6 7 8 9 9 9 8 7 7 7 7 7 7 8 8 8 8 8 8 8 8 8 9 9 9 9 9 9 8 7 6 5 4 4 4
5 5 5 5 6 6 6 7 7 7 7 9 10 9 8 6 6 6 6 6 6 7 7 7 7 6 6 6 6 6 6 7 7 7 7 7 6 5 4 3 3 3 3 3
4 5 5 5 6 7 6 7 7 7 8 9 9 8 5 4 4 4 4 5 5 5 5 5 5 5 4 4 4 4 4 4 4 5 5 4 4 3 2 2 2 1 1 2
5 5 5 8 9 8 8 8 8 8 9 9 8 6 4 3 3 3 3 4 4 4 4 4 4 3 3 3 2 2 2 2 2 3 3 2 2 2 1 1 1 1 1 1
6 5 6 8 9 9 8 8 8 8 8 8 7 6 4 3 2 2 2 2 3 3 3 3 2 2 2 1 1 0 0 1 1 2 2 1 1 1 1 1 1 0 0 0
6 6 6 9 10 9 9 8 9 8 7 7 6 6 5 2 2 2 2 2 2 2 2 1 1 1 1 0 -0 -0 -0 0 1 1 2 2 1 1 1 1 0 -0 -0 -0
6 6 6 8 9 9 9 9 10 9 8 7 5 5 3 2 2 1 1 1 1 1 1 1 0 1 1 0 0 0 1 1 2 2 2 1 1 1 0 0 -0 -0 -0 -1
6 6 6 9 9 9 9 10 9 9 8 7 5 4 3 3 2 1 1 1 1 1 1 0 1 1 1 1 1 1 2 2 2 1 1 1 0 0 -0 -0 -1 -1 -1 -2
7 7 9 10 10 11 10 9 8 8 7 7 5 4 3 3 2 2 1 1 1 2 2 1 2 2 2 2 2 2 2 1 1 1 0 -0 -0 -0 -1 -1 -2 -2 -2 -3
7 7 8 10 10 10 10 8 8 7 7 7 6 5 4 3 3 2 2 2 2 3 2 2 2 2 3 2 2 2 2 1 0 -0 -0 -1 -1 -2 -2 -2 -2 -2 -2 -3
8 8 9 10 10 10 9 8 7 6 6 6 6 5 4 3 3 3 3 3 3 3 3 3 2 2 2 2 2 1 1 0 -0 -1 -1 -1 -2 -2 -2 -2 -2 -2 -3 -4
7 8 9 10 10 10 9 8 7 6 6 5 5 5 4 3 3 3 3 3 3 3 3 3 2 2 2 1 1 1 0 -0 -1 -1 -1 -2 -2 -2 -2 -2 -3 -4 -5 -6
9 9 9 10 10 10 9 8 6 5 5 5 4 4 4 3 3 3 3 3 3 3 3 3 2 2 1 0 0 0 0 -0 -1 -1 -2 -2 -2 -2 -3 -4 -5 -6 -6 -7
8 8 9 9 9 9 8 7 6 5 4 4 3 3 3 2 2 2 2 2 3 3 2 2 1 1 -0 -0 -1 -1 -1 -1 -1 -2 -2 -2 -3 -3 -4 -5 -5 -6 -7 -7
7 8 8 9 8 8 7 6 5 4 3 3 2 2 2 2 2 2 2 2 2 2 2 1 0 -0 -1 -1 -1 -1 -1 -2 -2 -2 -3 -3 -4 -4 -5 -5 -6 -7 -7 -8
5 6 7 7 7 7 6 5 4 4 3 3 2 2 2 2 2 2 2 2 2 2 1 0 0 -0 -1 -2 -2 -2 -2 -2 -3 -3 -4 -4 -4 -5 -6 -6 -7 -8 -8 -9
2 4 5 6 6 6 5 5 4 4 4 3 3 3 2 2 2 2 2 2 1 1 0 -0 -0 -1 -2 -2 -2 -2 -3 -3 -3 -4 -4 -4 -5 -6 -6 -7 -8 -9 -9 -10
2 3 4 4 5 6 5 5 4 4 4 4 3 3 3 3 3 3 2 1 0 -0 -1 -1 -1 -2 -2 -2 -3 -3 -3 -3 -4 -4 -4 -5 -6 -7 -7 -8 -9 -9 -9 -10
2 3 4 5 6 6 6 5 4 4 4 4 3 3 3 3 3 3 2 1 -0 -0 -1 -2 -2 -2 -2 -2 -3 -3 -3 -3 -4 -4 -5 -6 -7 -8 -8 -9 -9 -10 -10 -10
2 3 4 5 5 5 5 4 4 4 4 3 3 3 3 3 2 2 1 0 -0 -0 -1 -1 -2 -2 -2 -3 -3 -3 -3 -4 -4 -5 -6 -7 -8 -8 -9 -10 -10 -10 -10 -10
1 2 3 4 4 4 4 3 3 4 4 3 4 4 4 3 2 1 1 0 -1 -1 -1 -2 -2 -2 -3 -3 -3 -3 -4 -4 -5 -6 -7 -8 -9 -9 -10 -10 -10 -10 -10 -10
1 2 3 3 3 3 3 3 3 3 3 3 3 3 3 2 2 1 0 0 -0 -1 -2 -2 -2 -3 -3 -3 -3 -4 -4 -5 -6 -7 -8 -9 -9 -10 -10 -10 -10 -10 -10 -10
1 1 2 2 2 2 2 2 2 2 2 3 3 4 3 3 2 2 1 -0 -1 -1 -2 -2 -3 -3 -3 -3 -4 -4 -5 -6 -7 -8 -8 -9 -10 -10 -10 -10 -10 -10 -10 -10
2 2 1 1 1 1 1 1 1 1 1 2 2 3 2 2 2 1 0 -0 -1 -1 -2 -2 -3 -3 -3 -4 -4 -5 -6 -7 -7 -8 -9 -10 -10 -10 -10 -10 -10 -10 -10 -10
1 1 1 1 0 -0 -0 -0 0 0 0 1 1 2 1 1 2 1 0 -0 -1 -2 -2 -2 -3 -3 -4 -4 -5 -5 -6 -7 -8 -9 -9 -10 -10 -10 -10 -10 -10 -10 -9 -9
0 0 0 -0 -1 -1 -1 -1 -1 -1 -1 -0 0 1 1 0 0 -0 -0 -1 -1 -2 -2 -3 -3 -3 -4 -5 -5 -6 -7 -8 -8 -9 -9 -9 -10 -10 -10 -10 -9 -9 -9 -9
-1 -1 -1 -1 -1 -2 -2 -2 -2 -2 -1 -1 -0 0 0 -0 -1 -1 -1 -1 -2 -2 -2 -3 -3 -4 -4 -5 -6 -6 -7 -8 -8 -8 -9 -9 -9 -9 -9 -9 -9 -9 -8 -8
Wind_Speed
6 6 5 8 9 10 13 12 11 13 18 25 24 21 15 13 12 13 12 11 9 7 5 3 2 4 5 5 4 4 8 10 11 13 13 14 15 15 14 14 14 13 13 12
5 6 7 8 12 13 15 16 19 23 25 22 16 10 10 10 12 13 13 11 10 6 2 2 4 5 7 8 8 8 10 12 14 15 16 16 16 16 16 15 14 13 12 11
4 6 5 8 11 12 8 9 11 14 12 12 15 11 7 9 11 11 11 10 8 5 6 7 8 8 10 11 11 12 13 14 15 17 18 17 18 18 16 14 13 12 10 9
3 4 5 7 4 8 8 9 10 11 13 13 11 3 3 6 9 10 10 9 8 8 9 10 10 12 12 13 13 14 14 15 16 18 19 18 17 16 14 12 11 9 8 8
2 4 7 8 5 5 5 8 7 9 11 9 5 1 1 7 7 7 8 8 8 8 9 10 11 12 13 14 14 14 15 15 15 16 17 16 15 13 11 11 9 7 6 6
3 4 5 6 2 3 2 6 6 7 9 7 4 3 3 6 6 7 7 7 8 9 10 10 10 11 13 13 13 13 13 13 13 14 14 14 13 11 9 9 8 7 6 5
5 5 7 8 4 4 1 6 4 6 6 3 2 2 1 4 5 5 6 7 8 8 9 8 8 10 12 11 11 11 12 13 13 13 13 12 11 9 8 8 7 6 6 4
6 6 8 6 3 4 7 6 5 5 4 4 5 5 4 4 4 4 5 6 7 7 8 8 8 10 11 11 10 11 12 13 12 11 10 10 10 9 8 8 7 6 5 4
8 10 7 3 5 5 3 5 5 3 4 7 7 6 6 5 4 4 5 6 6 7 8 8 8 9 11 9 10 11 12 12 11 11 10 9 9 9 7 6 5 4 3 2
6 9 9 9 6 4 3 5 5 4 6 8 7 8 8 7 6 5 5 6 6 7 8 8 8 9 9 9 9 11 12 11 10 10 9 8 7 6 5 5 4 3 3 2
6 8 9 6 5 4 3 2 1 2 5 7 9 9 8 8 7 6 6 6 6 7 8 9 8 8 8 8 9 11 10 9 9 8 8 7 6 4 5 3 4 3 2 1
7 7 5 7 5 4 5 4 4 5 5 6 8 9 9 8 7 7 8 7 8 8 9 9 8 8 7 7 8 10 9 7 6 6 5 5 5 4 5 3 5 3 3 2
7 8 7 6 3 3 5 4 5 5 7 7 7 8 8 7 7 8 9 8 8 8 8 9 8 8 7 7 8 8 8 7 5 5 5 4 4 4 3 4 6 6 6 6
8 5 5 5 5 4 5 5 5 6 6 7 7 8 9 8 8 9 9 8 9 9 9 9 9 7 6 8 8 8 8 7 6 5 4 4 3 3 2 2 2 3 5 8
9 6 4 1 5 5 5 6 7 6 6 6 7 9 9 10 9 9 9 10 10 9 8 8 8 7 6 8 8 8 7 5 5 4 4 3 3 3 2 2 2 2 3 4
12 7 2 3 6 6 6 7 7 8 7 7 8 8 9 9 9 9 8 9 10 10 8 8 8 6 7 8 8 6 5 8 6 4 4 3 3 3 2 2 1 2 3 4
9 7 4 5 7 8 8 7 8 8 9 9 9 10 11 11 10 9 8 7 7 7 7 8 7 7 7 7 7 5 4 5 7 5 3 3 3 2 1 1 1 2 3 5
9 11 10 9 8 9 10 9 9 10 9 9 11 11 11 12 12 11 9 10 9 8 6 6 7 7 7 7 6 5 4 4 4 4 3 2 2 1 1 1 2 3 3 4
11 10 9 8 8 9 10 10 11 10 10 11 12 11 9 8 10 10 10 11 11 9 6 6 11 8 7 7 7 4 4 4 4 3 2 3 3 2 1 2 3 3 3 4
11 11 9 4 3 5 8 9 10 10 11 12 11 10 10 9 10 10 10 8 6 6 8 9 8 7 6 7 7 4 4 4 4 3 2 2 1 1 2 3 3 3 3 4
12 11 9 4 1 3 7 10 11 11 11 12 12 12 11 10 10 10 9 7 5 8 9 12 7 6 5 6 7 5 4 4 3 2 1 1 1 2 2 3 3 4 4 4
11 9 8 4 2 4 5 7 9 10 11 10 10 10 11 11 10 7 5 5 8 14 8 6 5 7 8 7 5 5 4 3 2 1 1 1 2 2 3 3 4 4 4 5
10 8 7 4 1 3 4 5 8 10 10 11 12 13 12 10 9 9 7 6 8 13 9 6 9 11 10 6 5 4 4 3 1 0 1 2 2 3 3 4 4 5 5 5
9 8 6 3 1 3 4 4 5 6 7 8 8 9 9 9 6 4 5 14 15 13 7 10 13 12 9 5 4 4 3 1 1 1 2 3 3 3 3 4 5 5 5 7
8 7 6 4 1 1 2 4 6 6 7 6 7 8 7 5 5 7 8 10 15 13 7 10 13 11 6 5 4 3 2 2 3 2 2 3 3 4 5 5 5 6 6 6
7 6 5 4 3 2 3 5 5 6 6 7 6 6 6 6 8 9 8 9 11 12 8 6 7 7 5 4 3 2 2 2 2 2 2 4 5 5 5 6 7 6 6 7
7 6 4 4 2 2 4 4 5 6 7 8 8 7 7 8 8 9 10 9 8 8 6 6 5 5 4 4 3 2 2 2 3 3 4 4 5 5 6 7 6 6 6 7
Wind_Direction
248 244 222 221 222 208 209 221 244 262 272 284 293 299 303 307 308 309 308 303 297 288 284 301 346 12 22 20 35 98 123 126 126 122 120 121 123 124 124 124 122 119 116 112
279 266 243 248 241 229 234 238 246 263 276 279 287 302 316 324 322 319 317 316 315 309 334 48 58 60 57 49 51 76 97 106 109 111 110 109 109 108 106 104 105 108 112 114
274 305 326 269 234 207 208 214 220 248 264 292 308 320 333 334 331 328 329 332 342 20 56 63 68 73 74 70 71 80 89 97 102 104 103 102 103 101 99 99 100 99 100 103
286 331 259 244 248 192 214 241 230 251 272 291 301 307 30 357 344 344 350 4 27 54 65 70 76 81 84 84 86 88 91 95 98 100 100 100 100 100 98 97 97 97 100 109
254 286 279 284 253 200 222 275 243 248 275 294 305 232 17 15 9 11 18 33 46 63 76 79 83 90 93 91 92 93 94 96 99 103 105 105 105 104 104 104 103 108 122 138
226 269 263 261 283 138 123 284 256 240 269 290 327 322 328 16 22 30 39 49 59 67 76 80 85 94 95 95 94 95 96 96 97 101 105 107 109 110 112 118 126 131 127 132
224 253 270 258 252 119 234 267 261 232 248 251 201 194 102 57 45 43 51 61 67 72 75 77 85 94 95 94 93 96 97 95 94 97 102 108 110 116 123 120 111 101 95 83
196 219 254 257 154 197 237 272 271 244 210 174 147 130 114 93 75 58 58 66 72 76 72 69 80 92 93 91 96 99 99 98 99 100 104 109 108 102 96 98 97 94 94 80
203 222 242 252 239 259 261 275 274 241 183 155 151 151 138 124 109 86 75 77 80 85 80 71 75 92 99 98 102 102 100 98 95 91 89 92 96 95 88 89 99 107 118 115
252 262 264 267 252 243 248 261 277 236 173 166 162 153 144 138 132 117 102 97 96 95 92 87 86 90 101 107 105 103 99 94 92 91 85 78 83 92 102 112 122 131 126 105
257 279 295 281 236 236 240 252 253 137 161 165 153 153 148 142 137 128 116 105 100 102 103 100 98 95 95 98 103 100 96 95 91 89 93 89 88 104 120 138 143 132 134 152
238 244 251 270 255 213 213 214 184 150 139 150 155 151 143 137 133 128 122 115 111 109 109 107 104 98 89 90 103 109 106 99 98 101 101 104 104 85 78 94 82 91 177 222
262 274 255 257 236 196 199 191 170 160 155 149 146 143 137 133 132 129 128 127 124 120 117 115 110 102 94 94 97 103 111 110 105 107 107 105 98 94 68 36 41 37 22 1
283 272 257 238 222 181 159 137 123 118 127 135 133 134 131 128 132 134 135 132 125 120 118 115 110 103 101 102 103 103 105 113 113 105 102 99 102 107 111 89 30 353 357 359
331 296 262 197 132 136 136 131 128 130 130 127 131 138 139 141 142 137 134 131 123 118 117 116 113 109 106 107 109 110 108 108 107 108 110 112 112 107 94 81 55 346 328 338
316 310 250 178 177 172 163 161 162 161 153 145 142 140 136 133 130 128 130 135 137 136 131 124 120 119 113 111 111 109 117 131 128 124 119 111 100 92 83 62 21 343 325 311
306 292 261 235 215 204 195 187 177 170 162 155 149 139 134 132 130 129 125 119 117 120 124 126 124 120 118 120 119 119 118 130 127 116 111 110 102 90 74 26 328 313 303 312
281 271 263 247 229 212 201 185 174 170 165 155 148 146 149 152 152 146 136 124 115 105 107 118 125 124 125 127 127 128 125 120 119 117 110 102 97 73 31 339 320 317 310 318
317 306 288 253 224 203 192 181 173 165 156 155 159 160 155 149 145 143 141 140 142 143 153 153 144 132 132 142 134 123 124 120 110 103 93 69 71 36 357 330 320 315 313 317
332 332 328 306 213 181 172 161 156 156 158 159 157 152 150 149 148 148 147 150 161 159 156 151 137 133 134 140 131 121 121 116 111 102 92 79 41 345 335 329 324 318 317 312
339 341 345 354 70 135 145 150 155 160 162 163 166 165 159 153 152 152 153 155 159 149 154 154 146 144 142 140 128 119 114 108 105 103 87 38 342 327 322 319 320 321 318 314
338 342 349 4 72 106 127 142 152 158 161 160 155 151 153 156 157 153 151 158 158 161 152 145 148 158 154 137 119 119 114 110 104 99 78 338 316 308 306 310 307 303 299 296
339 340 345 359 68 121 129 146 157 164 168 168 167 169 170 167 166 163 160 156 156 162 153 157 167 160 144 126 120 116 116 119 123 119 309 301 298 300 299 298 291 288 289 288
338 341 341 348 73 129 150 156 148 151 153 154 160 162 160 155 151 145 142 160 165 159 156 167 162 151 136 124 121 123 131 152 209 265 287 295 299 298 289 284 283 282 280 283
330 329 332 333 304 212 166 142 132 137 140 145 147 147 147 146 150 152 149 157 162 154 154 162 155 143 133 129 134 145 171 224 239 246 253 274 279 280 277 275 273 276 280 280
325 324 317 301 275 219 176 163 162 160 156 155 154 148 138 131 138 146 147 149 153 153 145 130 133 136 133 139 148 168 207 275 322 324 282 277 275 276 275 276 278 276 277 277
318 319 317 319 301 224 194 182 176 175 173 170 164 160 152 148 150 152 148 146 145 144 140 136 136 139 144 152 167 198 232 254 268 274 276 272 270 269 272 274 274 276 276 277
Height
1481 1478 1478 1478 1478 1478 1480 1479 1477 1463 1454 1441 1436 1432 1428 1424 1420 1415 1410 1406 1403 1401 1399 1398 1397 1395 1394 1393 1392 1392 1393 1395 1399 1403 1409 1415 1420 1426 1431 1436 1442 1449 1456 1463
1478 1474 1474 1474 1470 1470 1470 1468 1464 1458 1449 1437 1431 1428 1425 1422 1418 1414 1409 1405 1401 1399 1397 1395 1394 1392 1391 1390 1390 1390 1392 1394 1397 1401 1407 1413 1418 1424 1430 1436 1443 1450 1457 1463
1480 1475 1472 1469 1456 1458 1459 1454 1454 1450 1440 1432 1429 1426 1425 1422 1418 1414 1409 1405 1401 1398 1395 1394 1393 1392 1390 1390 1390 1391 1392 1394 1398 1402 1407 1413 1419 1425 1432 1439 1446 1453 1460 1464
1478 1475 1473 1454 1443 1445 1447 1444 1442 1439 1434 1431 1428 1426 1424 1422 1418 1414 1409 1405 1402 1399 1397 1395 1394 1393 1392 1392 1392 1393 1394 1397 1401 1405 1410 1417 1424 1430 1437 1443 1450 1456 1460 1463
1474 1472 1465 1450 1442 1441 1444 1441 1435 1435 1431 1429 1426 1425 1423 1421 1418 1415 1411 1408 1405 1402 1400 1398 1397 1396 1396 1396 1397 1399 1401 1404 1409 1413 1418 1424 1430 1435 1441 1446 1451 1455 1458 1461
1471 1468 1461 1446 1438 1438 1442 1441 1432 1431 1429 1427 1426 1426 1425 1422 1419 1416 1413 1410 1408 1406 1404 1402 1402 1402 1401 1402 1404 1406 1409 1412 1416 1420 1424 1429 1434 1440 1444 1448 1451 1455 1458 1460
1467 1466 1456 1441 1437 1439 1444 1438 1429 1428 1426 1425 1425 1425 1425 1422 1420 1418 1415 1413 1411 1410 1408 1408 1408 1408 1407 1408 1410 1413 1415 1418 1422 1426 1430 1435 1439 1444 1447 1451 1454 1457 1459 1459
1460 1461 1455 1435 1436 1438 1435 1428 1426 1424 1424 1423 1422 1422 1422 1422 1421 1419 1418 1416 1415 1414 1413 1413 1413 1413 1414 1414 1417 1419 1422 1425 1429 1433 1437 1441 1444 1448 1451 1453 1456 1457 1458 1458
1450 1446 1435 1432 1432 1430 1429 1426 1423 1422 1421 1421 1420 1421 1422 1422 1422 1421 1420 1419 1419 1418 1418 1418 1419 1420 1420 1422 1424 1426 1429 1432 1435 1439 1442 1446 1448 1451 1453 1455 1456 1457 1457 1457
1442 1436 1431 1429 1428 1427 1426 1423 1421 1419 1419 1419 1419 1419 1421 1422 1423 1423 1423 1423 1422 1422 1423 1423 1425 1426 1428 1429 1431 1433 1435 1438 1441 1444 1446 1449 1451 1453 1454 1455 1456 1456 1455 1453
1437 1433 1429 1425 1425 1424 1422 1420 1418 1417 1417 1418 1418 1419 1420 1421 1423 1424 1425 1425 1426 1426 1427 1428 1430 1431 1433 1435 1437 1439 1441 1443 1445 1447 1449 1451 1452 1454 1454 1455 1454 1453 1452 1450
1434 1429 1428 1425 1423 1422 1420 1418 1417 1416 1416 1417 1417 1418 1419 1421 1423 1425 1426 1427 1428 1429 1430 1432 1434 1436 1438 1440 1442 1444 1445 1447 1449 1450 1451 1453 1453 1454 1453 1453 1452 1450 1448 1446
1429 1426 1424 1421 1420 1419 1417 1416 1415 1415 1415 1415 1416 1418 1419 1421 1423 1425 1427 1429 1430 1432 1434 1436 1438 1440 1442 1445 1447 1448 1449 1450 1451 1452 1453 1453 1453 1453 1452 1451 1449 1447 1445 1444
1424 1422 1420 1418 1417 1416 1415 1414 1414 1413 1414 1415 1416 1417 1419 1421 1423 1425 1428 1430 1432 1434 1437 1439 1441 1443 1445 1447 1449 1451 1451 1452 1453 1453 1453 1453 1452 1451 1450 1448 1447 1445 1443 1441
1420 1419 1418 1416 1415 1414 1413 1412 1412 1412 1413 1414 1416 1417 1419 1421 1423 1425 1428 1431 1433 1436 1439 1441 1443 1445 1447 1449 1451 1452 1453 1453 1453 1453 1452 1452 1450 1449 1448 1446 1444 1442 1440 1438
1418 1416 1415 1413 1412 1412 1411 1411 1411 1411 1413 1414 1415 1417 1419 1421 1424 1426 1429 1432 1435 1437 1440 1443 1445 1447 1449 1450 1452 1453 1453 1453 1453 1452 1451 1450 1449 1447 1445 1443 1441 1439 1437 1435
1416 1413 1412 1411 1410 1409 1409 1409 1410 1411 1412 1413 1415 1417 1419 1422 1424 1427 1430 1434 1437 1440 1443 1445 1447 1448 1449 1451 1452 1452 1452 1452 1451 1450 1449 1448 1447 1445 1443 1441 1439 1436 1434 1432
1412 1410 1408 1407 1407 1406 1406 1407 1408 1409 1411 1413 1415 1417 1420 1422 1424 1427 1431 1434 1437 1441 1443 1445 1447 1448 1450 1451 1451 1452 1451 1451 1450 1449 1447 1446 1444 1442 1440 1438 1436 1433 1431 1429
1407 1405 1403 1403 1403 1403 1403 1403 1405 1407 1410 1412 1415 1417 1420 1423 1426 1429 1431 1434 1437 1439 1442 1444 1446 1448 1449 1450 1451 1451 1450 1449 1448 1446 1445 1443 1441 1439 1437 1435 1432 1430 1428 1426
1404 1402 1400 1399 1399 1399 1400 1401 1403 1406 1408 1411 1414 1417 1420 1423 1426 1429 1432 1434 1437 1440 1442 1444 1446 1447 1449 1449 1449 1449 1448 1447 1445 1444 1442 1440 1438 1436 1433 1431 1429 1427 1425 1423
1402 1400 1399 1398 1398 1398 1399 1400 1402 1404 1407 1410 1414 1417 1420 1423 1426 1429 1431 1434 1437 1439 1441 1443 1445 1446 1447 1447 1447 1447 1446 1444 1442 1440 1438 1436 1434 1432 1430 1428 1426 1424 1422 1420
1403 1400 1399 1398 1398 1398 1399 1400 1402 1404 1406 1409 1413 1417 1420 1422 1425 1428 1431 1434 1436 1438 1440 1442 1444 1445 1445 1445 1445 1444 1443 1441 1439 1437 1435 1433 1431 1429 1427 1425 1423 1421 1419 1417
1404 1401 1400 1399 1398 1398 1399 1400 1401 1403 1405 1408 1411 1415 1418 1421 1423 1425 1428 1432 1434 1437 1439 1440 1442 1443 1443 1443 1443 1442 1440 1438 1436 1434 1432 1430 1428 1426 1424 1422 1420 1419 1417 1415
1404 1402 1400 1399 1398 1398 1398 1399 1400 1402 1404 1407 1410 1414 1417 1420 1422 1425 1428 1431 1433 1435 1437 1438 1440 1441 1441 1441 1440 1438 1437 1435 1433 1431 1429 1427 1425 1423 1422 1420 1418 1416 1415 1413
1404 1402 1400 1398 1398 1397 1398 1398 1399 1400 1402 1405 1408 1412 1415 1418 1421 1424 1426 1429 1431 1433 1435 1436 1437 1438 1438 1438 1437 1435 1433 1431 1429 1428 1426 1424 1422 1421 1419 1417 1416 1414 1413 1411
1402 1400 1399 1397 1397 1396 1396 1397 1397 1398 1400 1402 1405 1409 1412 1416 1419 1422 1425 1427 1429 1431 1433 1434 1435 1435 1435 1435 1434 1432 1430 1429 1427 1425 1423 1422 1420 1418 1417 1415 1414 1412 1411 1409
1401 1399 1397 1395 1395 1394 1394 1394 1395 1396 1398 1400 1403 1406 1409 1413 1416 1419 1422 1424 1426 1428 1430 1431 1432 1433 1432 1432 1431 1429 1428 1427 1425 1424 1422 1420 1419 1417 1415 1414 1412 1411 1409 1407